Location: Carbonear
(47.7333°N, 53.2500°W)
Time: 06:34:24
(UTC+00:00)

AO-27 - Pass Details

Date: 09 December 2022
Orbit: 784 x 798 km, 98.9° (Epoch: 28 January)

Event Time Altitude Azimuth Distance (km) Brightness Sun altitude
Exits shadow 22:00:35 18° 13° (NNE) 1,864 9.4 -22.5°
Drops below altitude 10° 22:02:10 10° 2° (N) 2,382 10.0 -22.7°
Sets 22:04:41 0° 353° (N) 3,317 10.9 -23.1°
